Wind_Speed
16 16 14 12 10 10 9 7 5 5 7 7 4 4 4 3 2 3 3 3 4 4
20 17 17 15 15 12 9 9 9 7 7 8 8 8 6 6 4 3 4 5 4 3
21 18 16 17 14 15 10 11 11 11 9 8 9 10 9 10 8 7 5 6 7 7
18 17 17 19 18 15 14 13 12 11 10 10 11 11 8 8 7 9 8 8 8 8
20 19 17 19 20 18 16 14 14 14 14 12 12 11 8 9 9 9 10 10 10 9
23 21 19 16 19 19 19 16 15 14 12 11 11 11 11 11 15 14 14 14 13 11
28 24 22 18 17 18 19 19 19 19 15 13 13 13 14 15 16 16 15 13 14 12
25 25 24 22 20 19 20 20 21 20 17 16 15 15 15 14 14 14 14 13 14 13
19 21 22 24 23 21 21 21 20 20 19 20 21 20 17 16 16 15 13 12 13 12
19 19 18 21 23 22 21 21 19 17 17 16 16 16 16 16 16 13 11 10 10 10
14 18 17 17 17 18 18 19 18 18 17 17 18 16 13 11 9 8 7 7 7 8
17 14 14 12 13 11 11 12 12 12 11 9 9 9 11 12 12 11 9 9 8 7
15 14 14 14 15 12 9 7 8 9 8 8 12 13 17 17 17 16 15 15 15 15
18 16 15 13 13 12 11 11 11 11 10 11 11 10 10 9 8 9 10 10 8 8
Wind_Direction
230 233 233 235 228 232 237 215 211 208 210 216 236 293 294 271 301 268 281 308 340 343
228 235 236 235 243 238 239 226 221 233 233 248 257 267 267 269 284 301 291 291 307 328
227 233 239 237 237 231 238 235 241 251 254 269 269 256 261 260 273 267 297 311 299 299
225 234 237 234 242 244 244 243 243 245 243 269 277 248 242 261 273 280 286 294 303 294
228 232 240 238 238 244 252 251 251 249 254 262 257 249 255 270 274 281 288 289 300 288
234 235 238 246 240 241 245 244 244 241 244 253 257 261 260 265 278 281 284 284 283 285
230 234 236 242 243 239 238 235 241 249 256 258 256 259 260 273 282 286 284 282 278 270
231 236 238 237 243 239 235 237 242 244 247 247 250 259 268 272 276 283 282 281 275 277
228 233 234 240 241 242 239 237 242 246 249 250 254 262 264 269 272 281 278 277 269 264
217 220 226 231 237 243 241 241 241 243 247 254 258 260 265 268 268 267 268 272 262 248
223 223 230 233 239 246 246 239 236 238 244 254 258 250 238 241 247 252 260 271 258 252
228 225 221 214 219 203 197 199 212 213 196 195 197 217 239 255 272 279 260 246 244 248
217 206 212 221 222 220 204 189 191 200 205 226 236 245 251 258 258 260 262 261 263 269
208 205 204 209 213 208 215 219 213 220 221 229 237 238 237 235 248 263 266 262 267 267
Height
1563 1566 1568 1570 1572 1574 1575 1576 1577 1578 1580 1581 1581 1580 1581 1581 1581 1581 1581 1580 1580 1581
1560 1563 1566 1567 1570 1572 1573 1574 1576 1577 1578 1579 1579 1579 1579 1579 1579 1580 1580 1580 1579 1579
1557 1560 1563 1564 1566 1568 1570 1572 1574 1575 1575 1576 1576 1576 1577 1577 1578 1578 1579 1579 1578 1577
1554 1556 1559 1561 1563 1565 1566 1569 1571 1572 1573 1574 1573 1573 1575 1575 1575 1576 1576 1576 1575 1575
1550 1553 1555 1557 1560 1561 1563 1565 1567 1568 1570 1570 1570 1570 1571 1572 1573 1573 1574 1574 1573 1573
1545 1548 1551 1554 1556 1558 1559 1561 1563 1564 1565 1566 1567 1567 1568 1569 1570 1571 1571 1570 1571 1572
1540 1544 1547 1550 1552 1554 1555 1557 1559 1560 1561 1562 1564 1564 1565 1566 1566 1567 1567 1567 1567 1568
1535 1539 1543 1546 1548 1550 1551 1553 1555 1556 1558 1559 1561 1561 1562 1563 1563 1563 1563 1563 1563 1564
1529 1534 1538 1541 1543 1545 1546 1548 1550 1552 1553 1555 1556 1558 1559 1559 1559 1559 1559 1559 1560 1560
1526 1530 1534 1537 1539 1541 1542 1543 1545 1546 1548 1550 1552 1553 1555 1555 1556 1556 1556 1556 1556 1557
1523 1526 1529 1532 1535 1536 1537 1539 1541 1543 1544 1546 1547 1549 1551 1552 1553 1553 1554 1555 1555 1555
1518 1520 1525 1529 1531 1533 1533 1534 1536 1538 1540 1542 1544 1546 1548 1550 1550 1551 1551 1552 1552 1553
1514 1517 1522 1525 1528 1529 1530 1532 1534 1536 1537 1539 1542 1542 1543 1546 1547 1547 1548 1549 1549 1549
1512 1516 1518 1520 1524 1525 1527 1529 1531 1534 1535 1537 1538 1539 1540 1542 1543 1543 1543 1545 1544 1546